Regional Weather Roundup
Issued by NWS

Home | Current Version | Previous Version | Text Only | Print | Product List | Glossary Off
Versions: 1 2 3 4 5 6 7 8 9 10 11 12 13 14 15 16 17 18 19 20 21 22 23 24 25 26 27

000
ASUS45 KSLC 250110
RWRUT

UTAH REGIONAL WEATHER ROUNDUP
NATIONAL WEATHER SERVICE SALT LAKE CITY UT
700 PM MDT MON JUL 24 2017

UTZ001>011-023>025-250200-

NORTHERN UTAH

CITY           SKY/WX    TMP DP  RH WIND       PRES   REMARKS
BRIGHAM CITY   SUNNY     92  34  13 CALM      29.92S
HILL AFB       MOSUNNY   91  41  17 N5        29.96S
LOGAN          MOSUNNY   85  47  26 N24G30    29.96R
OGDEN          MOSUNNY   93  39  15 VRB5      29.91F
SALT LAKE CITY PTSUNNY   96  45  17 N9        29.89S HX  92
TOOELE VALLEY  MOSUNNY   90  52  27 N9        29.90S
WENDOVER       CLOUDY    88  46  23 NW21G37   29.92R HAZE
HEBER CITY     MOSUNNY   86  50  28 N3        30.01S
WEST JORDAN    MOSUNNY   91  58  32 CALM      29.93S HX  90

$$

UTZ011>015-024>027-250200-

CENTRAL/NORTHEAST UTAH

CITY           SKY/WX    TMP DP  RH WIND       PRES   REMARKS
PROVO AIRPORT  SUNNY     92  46  20 N5        29.92F
MOAB/CANYONLAN CLOUDY    92  50  23 CALM      29.93R
DELTA          MOSUNNY   91  41  17 S14       29.93S
PRICE          CLOUDY    80  50  34 NE17      30.09S
ROOSEVELT      CLOUDY    82  45  26 SW14      30.05S
VERNAL         CLOUDY    87  47  24 W8        30.01S

$$

UTZ013>016-019>022-027-250200-

SOUTHERN UTAH

CITY           SKY/WX    TMP DP  RH WIND       PRES   REMARKS
BRYCE CANYON   CLOUDY    61  56  83 N10       30.27F
CEDAR CITY     LGT RAIN  69  59  70 S9        30.09R
MILFORD        CLOUDY    80  54  40 SW23      30.01R
ST GEORGE      PTCLDY    89  60  37 N7        29.89R
HANKSVILLE     CLOUDY    81  52  36 W17       29.98S
BLANDING       MOSUNNY   82  48  30 SW13      30.17R

$$

REGIONAL REPORTS     COLORADO/ARIZONA

CITY           SKY/WX    TMP DP  RH WIND       PRES   REMARKS
CRAIG, CO      PTSUNNY   84  40  21 N9G20     30.08S
GRAND JUNCTION CLOUDY    91  48  22 NW6       29.96R
RIFLE, CO      CLOUDY    90  46  21 NW8       30.01R
MONTROSE, CO   PTSUNNY   83  53  35 S12       30.08R
CORTEZ, CO     PTSUNNY   84  50  30 VRB7      30.10R
COLORADO CITY    N/A     88  54  31 S5        30.05F
PAGE, AZ       CLOUDY    88  55  32 VRB3      29.96F
GRAND CANYON   CLOUDY    74  54  49 SW7       30.18F
KINGMAN, AZ    PTSUNNY   83  62  49 SW6       29.97S
FLAGSTAFF, AZ  PTSUNNY   68  56  65 CALM      30.22S

$$

REGIONAL REPORTS    NEVADA/IDAHO/WYOMING

CITY           SKY/WX    TMP DP  RH WIND       PRES   REMARKS
LAS VEGAS, NV  CLOUDY    95  61  32 VRB5      29.82F HX  95
ELY, NY        CLOUDY    73  47  39 N8G21     30.14F
ELKO, NV       CLOUDY    83  39  21 S23G30    29.98R
POCATELLO, ID  CLOUDY    89  44  20 W3        29.95F
BURLEY, ID     MOSUNNY   87  44  22 SE3       29.90F
FORT BRIDGER,    N/A     82  36  18 S7        30.17S
EVANSTON, WY   MOSUNNY   82  39  21 W9        30.15S
ROCK SPRINGS,  SUNNY     85  33  15 SW10      30.13S
KEMMERER, WY     N/A     81  28  15 N10       30.18R

$$




USA.gov is the U.S. government's official web portal to all federal, state and local government web resources and services.